Location: Noordwijk
(52.2400°N, 4.4500°E)
Time: 11:02:25
(UTC+00:00)

DIWATA 2B (PO-101) - Visible Passes

Search period start: 30 November 2022 00:00
Search period end: 10 December 2022 00:00
Orbit: 582 x 598 km, 98.0° (Epoch: 30 November)

Date Brightness Start Highest point End Pass type
(mag) Time Alt. Az. Time Alt. Az. Time Alt. Az.
30 Nov ? 16:34:09 10° NNW 16:36:35 15° WNW 16:38:59 10° W visible
01 Dec ? 16:42:30 10° NNW 16:44:30 13° NW 16:46:30 10° W visible
02 Dec ? 16:51:00 10° NNW 16:52:26 12° NW 16:53:51 10° WNW visible
09 Dec ? 16:10:12 10° N 16:13:31 23° WNW 16:16:49 10° WSW visible
